This is the latest recevied weather packets stored in our database for station/object N0HOT. If no packets are shown the sender has not sent any weather packets the latest 10 day(s).
| Time | Temp. | Humidity | Pressure | Rain* | Wind** | Luminosity | Snow |
|---|---|---|---|---|---|---|---|
| 1777059520 | 16.67° C | 51% | 1008.7 hPa | 0 mm | - | 678 W/m² | - |
| 1777059217 | 16.67° C | 50% | 1008.7 hPa | 0 mm | - | 645 W/m² | - |
| 1777058917 | 16.67° C | 49% | 1009 hPa | 0 mm | - | 635 W/m² | - |
| 1777058617 | 16.67° C | 49% | 1008.7 hPa | 0 mm | - | 682 W/m² | - |
| 1777058315 | 16.67° C | 51% | 1008.7 hPa | 0 mm | - | 733 W/m² | - |
| 1777058010 | 16.11° C | 49% | 1008.7 hPa | 0 mm | - | 739 W/m² | - |
| 1777057705 | 16.11° C | 47% | 1008.7 hPa | 0 mm | - | 722 W/m² | - |
| 1777057401 | 16.11° C | 50% | 1008.7 hPa | 0 mm | - | 712 W/m² | - |
| 1777057096 | 16.11° C | 51% | 1008.7 hPa | 0 mm | - | 733 W/m² | - |
| 1777056791 | 15.56° C | 52% | 1008.3 hPa | 0 mm | - | 729 W/m² | - |
| 1777056487 | 15.56° C | 51% | 1008.3 hPa | 0 mm | - | 734 W/m² | - |
| 1777056182 | 15.56° C | 52% | 1008.3 hPa | 0 mm | - | 724 W/m² | - |
| 1777055878 | 15.56° C | 50% | 1008.3 hPa | 0 mm | - | 703 W/m² | - |
| 1777055575 | 15.56° C | 50% | 1008.7 hPa | 0 mm | - | 703 W/m² | - |
| 1777055275 | 15° C | 53% | 1008.7 hPa | 0 mm | - | 681 W/m² | - |
| 1777054974 | 15° C | 54% | 1008.7 hPa | 0 mm | - | 675 W/m² | - |
| 1777054670 | 15° C | 52% | 1008.7 hPa | 0 mm | - | 704 W/m² | - |
| 1777054367 | 15° C | 52% | 1008.7 hPa | 0 mm | - | 721 W/m² | - |
| 1777054066 | 15° C | 52% | 1008.7 hPa | 0 mm | - | 747 W/m² | - |
| 1777053761 | 15° C | 52% | 1008.7 hPa | 0 mm | - | 755 W/m² | - |
| 1777053460 | 15° C | 53% | 1008.7 hPa | 0 mm | - | 766 W/m² | - |
| 1777053156 | 14.44° C | 53% | 1008.7 hPa | 0 mm | - | 739 W/m² | - |
| 1777052853 | 14.44° C | 53% | 1008.7 hPa | 0 mm | - | 747 W/m² | - |
| 1777052547 | 15° C | 54% | 1008.7 hPa | 0 mm | - | 767 W/m² | - |
| 1777052244 | 15° C | 54% | 1008.7 hPa | 0 mm | - | 770 W/m² | - |
* Rain latest hour (hover to see other rain measurements)
** Current wind speed in m/s (hover to see current wind gust speed)